Spokane Fairchild, WA
on Tuesday, December 4, 2012

Tuesday
Previous Day Next Day
Daily Summary
 ActualAverage (KGEG)Record (KGEG)
Temperature
Mean Temperature °F 29°F  
Max Temperature 48°F 34°F 55°F (1946)
Min Temperature 37°F 24°F 4°F (1983)
Degree Days
Heating Degree Days 22 36  
Month to date heating degree days 142  
Since 1 July heating degree days 1809  
Cooling Degree Days 0 0  
Month to date cooling degree days 0  
Year to date cooling degree days 450  
Moisture
Dew Point 43°F   
Average Humidity 98    
Maximum Humidity 100    
Minimum Humidity 66    
Precipitation
Precipitation 0.32 in 0.08 in 0.50 in (1881)
Month to date precipitation 0.34  
Year to date precipitation 14.60  
Snow
Snow 0.00 in 0.40 in 6.50 in (1996)
Month to date snowfall 1.6  
Since 1 July snowfall 9.1  
Snow Depth in   
Wind
Wind Speed 13 mph   
Max Wind Speed 23 mph   
Max Gust Speed 29 mph   
Visibility 10 miles   
Events Rain   

Key: T is trace of precipitation, MM is missing value
Source: NWS Daily Summary
Time(PST)TemperatureDew PointHumidity Pressure Visibility Wind DirectionWind SpeedGust SpeedPrecipitationEvents Conditions
12:58 AM 39.4°F 39.4°F 100% 29.88 in 10.0 miles ESE 9.2 mph - N/A   Clear
1:58 AM 39.2°F 39.0°F 99% 29.85 in 10.0 miles ESE 6.9 mph - N/A   Mostly Cloudy
2:24 AM 41.0°F 37.4°F 87% 29.82 in 10.0 miles SE 4.6 mph - N/A   Partly Cloudy
2:58 AM 41.4°F 35.4°F 79% 29.83 in 10.0 miles ESE 8.1 mph - 0.00 in   Scattered Clouds
2:59 AM 41.0°F 35.6°F 81% 29.79 in 10.0 miles ESE 5.8 mph - N/A   Scattered Clouds
3:36 AM 42.8°F 32.0°F 66% 29.78 in 10.0 miles SE 11.5 mph - N/A   Mostly Cloudy
3:51 AM 41.0°F 37.4°F 87% 29.79 in 10.0 miles SSE 19.6 mph 27.6 mph N/A Rain Light Rain
3:58 AM 41.5°F 39.0°F 91% 29.84 in 10.0 miles South 23.0 mph 28.8 mph 0.00 in Rain Light Rain
4:43 AM 39.2°F 39.2°F 100% 29.81 in 10.0 miles South 13.8 mph - N/A Rain Light Rain
4:58 AM 38.3°F 38.3°F 100% 29.86 in 9.0 miles South 11.5 mph - 0.06 in Rain Rain
5:23 AM 37.4°F 37.4°F 100% 29.79 in 10.0 miles SSE 13.8 mph - N/A Rain Light Rain
5:28 AM 37.4°F 37.4°F 100% 29.80 in 8.0 miles SSE 11.5 mph - N/A Rain Light Rain
5:33 AM 37.4°F 37.4°F 100% 29.79 in 7.0 miles SSE 16.1 mph - N/A Rain Light Rain
5:48 AM 37.4°F 37.4°F 100% 29.79 in 7.0 miles SE 13.8 mph - N/A Rain Light Rain
5:58 AM 37.4°F 37.4°F 100% 29.84 in 6.0 miles SE 11.5 mph - 0.05 in Rain Light Rain
6:08 AM 37.4°F 37.4°F 100% 29.78 in 7.0 miles SE 15.0 mph - N/A Rain Light Rain
6:58 AM 37.9°F 37.9°F 100% 29.82 in 10.0 miles SE 20.7 mph 26.5 mph 0.01 in Rain Light Rain
7:01 AM 37.4°F 37.4°F 100% 29.77 in 10.0 miles SE 17.3 mph 26.5 mph N/A   Overcast
7:09 AM 37.4°F 37.4°F 100% 29.77 in 10.0 miles SE 17.3 mph 24.2 mph N/A Rain Light Rain
7:19 AM 39.2°F 39.2°F 100% 29.77 in 10.0 miles SE 17.3 mph 24.2 mph N/A   Overcast
7:29 AM 39.2°F 39.2°F 100% 29.78 in 10.0 miles SE 15.0 mph 24.2 mph N/A   Overcast
7:39 AM 39.2°F 39.2°F 100% 29.78 in 10.0 miles South 12.7 mph - N/A   Overcast
7:58 AM 39.4°F 39.4°F 100% 29.82 in 10.0 miles SSE 13.8 mph - 0.00 in   Overcast
8:56 AM 41.0°F 41.0°F 100% 29.79 in 10.0 miles South 12.7 mph 19.6 mph N/A   Overcast
9:28 AM 42.8°F 42.8°F 100% 29.80 in 10.0 miles South 15.0 mph - N/A   Overcast
9:33 AM 42.8°F 42.8°F 100% 29.80 in 10.0 miles South 12.7 mph - N/A   Overcast
9:56 AM 42.8°F 42.8°F 100% 29.80 in 10.0 miles South 11.5 mph - N/A   Overcast
10:05 AM 42.8°F 42.8°F 100% 29.80 in 10.0 miles South 15.0 mph 21.9 mph N/A   Overcast
10:56 AM 44.6°F 44.6°F 100% 29.79 in 10.0 miles South 16.1 mph 23.0 mph N/A   Overcast
11:33 AM 44.6°F 44.6°F 100% 29.78 in 9.0 miles South 13.8 mph - N/A   Overcast
11:49 AM 46.4°F 46.4°F 100% 29.77 in 10.0 miles South 13.8 mph - N/A   Overcast
11:56 AM 46.4°F 46.4°F 100% 29.77 in 10.0 miles SSE 12.7 mph 20.7 mph N/A   Overcast
12:08 PM 46.4°F 46.4°F 100% 29.78 in 10.0 miles South 15.0 mph 20.7 mph N/A   Overcast
12:17 PM 46.4°F 46.4°F 100% 29.78 in 10.0 miles South 13.8 mph 20.7 mph N/A   Overcast
12:29 PM 46.4°F 46.4°F 100% 29.77 in 10.0 miles South 12.7 mph 23.0 mph N/A   Overcast
12:40 PM 46.4°F 46.4°F 100% 29.76 in 10.0 miles South 16.1 mph 24.2 mph N/A   Overcast
12:56 PM 46.4°F 46.4°F 100% 29.76 in 10.0 miles South 18.4 mph - N/A   Overcast
1:55 PM 48.2°F 48.2°F 100% 29.76 in 10.0 miles South 18.4 mph 25.3 mph N/A Rain Light Rain
1:56 PM 48.2°F 48.2°F 100% 29.76 in 10.0 miles South 20.7 mph 26.5 mph N/A Rain Light Rain
2:07 PM 46.4°F 46.4°F 100% 29.76 in 10.0 miles South 17.3 mph 27.6 mph N/A Rain Light Rain
2:10 PM 46.4°F 46.4°F 100% 29.75 in 10.0 miles South 20.7 mph 27.6 mph N/A   Overcast
2:11 PM 46.4°F 46.4°F 100% 29.75 in 10.0 miles South 18.4 mph 27.6 mph N/A   Overcast
2:29 PM 46.4°F 46.4°F 100% 29.76 in 10.0 miles South 17.3 mph 24.2 mph N/A   Overcast
3:04 PM 46.4°F 46.4°F 100% 29.77 in 10.0 miles South 16.1 mph - N/A   Overcast
3:14 PM 46.4°F 46.4°F 100% 29.77 in 10.0 miles South 17.3 mph - N/A   Overcast
3:30 PM 46.4°F 46.4°F 100% 29.77 in 10.0 miles South 12.7 mph - N/A   Overcast
3:34 PM 46.4°F 46.4°F 100% 29.76 in 10.0 miles South 16.1 mph 20.7 mph N/A   Overcast
5:55 PM 45.9°F 45.9°F 100% 29.78 in 10.0 miles South 12.7 mph - 0.02 in   Overcast
6:55 PM 46.4°F 46.4°F 100% 29.76 in 10.0 miles South 12.7 mph 20.7 mph 0.00 in Rain Light Rain
7:55 PM 45.5°F 45.5°F 100% 29.74 in 9.0 miles South 13.8 mph - 0.01 in Rain Light Rain
8:58 PM 46.0°F 46.0°F 100% 29.71 in 10.0 miles South 16.1 mph - 0.08 in Rain Light Rain
9:24 PM 46.4°F 46.4°F 100% 29.71 in 10.0 miles South 11.5 mph - N/A Rain Light Rain
9:25 PM 46.4°F 46.4°F 100% 29.71 in 10.0 miles South 11.5 mph - N/A Rain Light Rain
9:45 PM 46.4°F 46.4°F 100% 29.70 in 10.0 miles South 10.4 mph - N/A Rain Light Rain
9:49 PM 46.4°F 46.4°F 100% 29.70 in 10.0 miles SSW 11.5 mph - N/A Rain Light Rain
9:55 PM 46.0°F 46.0°F 100% 29.73 in 10.0 miles SSW 17.3 mph - 0.02 in Rain Light Rain
9:56 PM 46.4°F 46.4°F 100% 29.70 in 10.0 miles SSW 15.0 mph 20.7 mph N/A Rain Light Rain
10:16 PM 46.4°F 46.4°F 100% 29.70 in 8.0 miles SSW 17.3 mph 24.2 mph N/A Rain Rain
10:21 PM 46.4°F 46.4°F 100% 29.69 in 8.0 miles SSW 19.6 mph 23.0 mph N/A Rain Rain
10:31 PM 46.4°F 46.4°F 100% 29.69 in 8.0 miles SSW 15.0 mph - N/A Rain Light Rain
10:32 PM 46.4°F 46.4°F 100% 29.70 in 9.0 miles SSW 17.3 mph - N/A   Overcast
10:35 PM 46.4°F 46.4°F 100% 29.69 in 10.0 miles SSW 15.0 mph 24.2 mph N/A Rain Light Rain
10:58 PM 46.6°F 46.4°F 99% 29.70 in 10.0 miles SSW 13.8 mph 20.7 mph 0.07 in Rain Light Rain
11:08 PM 46.4°F 46.4°F 100% 29.70 in 10.0 miles South 12.7 mph - N/A Rain Light Rain
11:13 PM 46.4°F 46.4°F 100% 29.70 in 10.0 miles South 13.8 mph - N/A   Overcast
11:31 PM 46.4°F 46.4°F 100% 29.70 in 10.0 miles SSW 15.0 mph - N/A Rain Light Rain
11:58 PM 46.6°F 46.6°F 100% 29.70 in 10.0 miles SSW 11.5 mph 23.0 mph 0.00 in Rain Light Rain
Moon Phase
Dec. 04 Dec. 06 Dec. 13 Dec. 20 Dec. 28
Sunrise:07:22 AM (PST) Moon Rise:10:09 PM (PST)12/4
Sunset:03:59 PM (PST) Moon Set:11:03 AM (PST)12/4

Copyright © 2014 The Weather Underground, Inc.